�v������,���r���O(���x),�����t���O,���r���O(���x),�����t���O,��1(���x),�����t���O,��2���x),�����t���O,�������x,�����t���O
12/1/2002 0:00,20.1,1,57.7,1,19.6,1,18.5,1,13.1,1
12/1/2002 0:15,20.1,1,57.2,1,19.6,1,18.5,1,13.1,1
12/1/2002 0:30,20.1,1,56.9,1,19.6,1,18.5,1,13.2,1
12/1/2002 0:45,20.1,1,56.7,1,19.6,1,18.4,1,13.2,1
12/1/2002 1:00,20.1,1,56.7,1,19.6,1,18.4,1,13.3,1
12/1/2002 1:15,20.1,1,56.6,1,19.6,1,18.4,1,13.3,1
12/1/2002 1:30,20.1,1,56.6,1,19.6,1,18.4,1,13.4,1
12/1/2002 1:45,20.1,1,56.3,1,19.6,1,18.4,1,13.4,1
12/1/2002 2:00,20.1,1,56.3,1,19.7,1,18.4,1,13.5,1
12/1/2002 2:15,20,1,56.6,1,19.7,1,18.4,1,13.5,1
12/1/2002 2:30,20,1,56.3,1,19.7,1,18.4,1,13.6,1
12/1/2002 2:45,20,1,56.1,1,19.6,1,18.4,1,13.4,1
12/1/2002 3:00,20,1,56,1,19.6,1,18.4,1,13.5,1
12/1/2002 3:15,20,1,55.8,1,19.5,1,18.4,1,13.5,1
12/1/2002 3:30,20,1,55.6,1,19.4,1,18.3,1,13.6,1
12/1/2002 3:45,19.9,1,55.7,1,19.3,1,18.3,1,13.6,1
12/1/2002 4:00,19.9,1,55.5,1,19.3,1,18.3,1,13.7,1
12/1/2002 4:15,19.9,1,55.3,1,19.2,1,18.3,1,13.7,1
12/1/2002 4:30,19.9,1,55.4,1,19.2,1,18.3,1,13.8,1
12/1/2002 4:45,19.9,1,55.6,1,19.1,1,18.3,1,13.8,1
12/1/2002 5:00,19.9,1,55.8,1,19.1,1,18.3,1,13.9,1
12/1/2002 5:15,19.9,1,55.7,1,19.1,1,18.3,1,13.9,1
12/1/2002 5:30,19.9,1,55.5,1,19.1,1,18.3,1,14,1
12/1/2002 5:45,19.9,1,55.3,1,19,1,18.3,1,14,1
12/1/2002 6:00,19.9,1,55.3,1,19,1,18.3,1,14.1,1
12/1/2002 6:15,19.9,1,55.1,1,19,1,18.2,1,14.1,1
12/1/2002 6:30,20.1,1,55,1,19,1,18.3,1,14.1,1
12/1/2002 6:45,20.1,1,52.9,1,19,1,18.3,1,14.2,1
12/1/2002 7:00,20.1,1,54.1,1,19,1,18.3,1,14,1
12/1/2002 7:15,20,1,54.3,1,19,1,18.3,1,14.1,1
12/1/2002 7:30,20,1,54.4,1,19,1,18.3,1,14.1,1
12/1/2002 7:45,20.2,1,54.3,1,19,1,18.3,1,14.1,1
12/1/2002 8:00,20.1,1,55.2,1,19,1,18.3,1,14.2,1
12/1/2002 8:15,20,1,53.8,1,19,1,18.3,1,13.5,1
12/1/2002 8:30,19.9,1,51,1,19,1,18.3,1,12.9,1
12/1/2002 8:45,19.8,1,51.3,1,19,1,18.2,1,12.9,1
12/1/2002 9:00,19.8,1,51.8,1,18.9,1,18.2,1,13,1
12/1/2002 9:15,19.8,1,52.6,1,18.9,1,18.1,1,13,1
12/1/2002 9:30,19.8,1,54.7,1,18.9,1,18.1,1,13.1,1
12/1/2002 9:45,19.8,1,56.9,1,18.9,1,18,1,13.1,1
12/1/2002 10:00,19.7,1,57.8,1,18.9,1,18,1,13.2,1
12/1/2002 10:15,19.7,1,58.6,1,18.8,1,17.9,1,13.2,1
12/1/2002 10:30,19.6,1,58.9,1,18.8,1,17.9,1,13.3,1
12/1/2002 10:45,19.6,1,59.8,1,18.8,1,17.9,1,13.3,1
12/1/2002 11:00,19.6,1,59.6,1,18.8,1,17.9,1,13.4,1
12/1/2002 11:15,19.6,1,59.6,1,18.8,1,17.8,1,13.4,1
12/1/2002 11:30,19.5,1,59.5,1,18.8,1,17.8,1,12.8,1
12/1/2002 11:45,19.5,1,59.7,1,18.8,1,17.8,1,12.3,1
12/1/2002 12:00,19.5,1,59.4,1,18.8,1,17.8,1,12.3,1
12/1/2002 12:15,19.5,1,59,1,18.8,1,17.8,1,12.6,1
12/1/2002 12:30,19.4,1,57.3,1,18.8,1,17.7,1,12.6,1
12/1/2002 12:45,19.4,1,56.8,1,18.8,1,17.6,1,12.7,1
12/1/2002 13:00,19.4,1,56.5,1,18.7,1,17.6,1,12.7,1
12/1/2002 13:15,19.4,1,56.5,1,18.7,1,17.6,1,12.8,1
12/1/2002 13:30,19.4,1,56.7,1,18.7,1,17.6,1,12.8,1
12/1/2002 13:45,19.4,1,56.9,1,18.7,1,17.6,1,12.9,1
12/1/2002 14:00,19.4,1,56.8,1,18.7,1,17.6,1,12.9,1
12/1/2002 14:15,19.4,1,56.9,1,18.6,1,17.6,1,13,1
12/1/2002 14:30,19.4,1,56.8,1,18.6,1,17.6,1,13,1
12/1/2002 14:45,19.3,1,56.7,1,18.6,1,17.6,1,13.1,1
12/1/2002 15:00,19.3,1,56.6,1,18.6,1,17.6,1,13.2,1
12/1/2002 15:15,19.3,1,56.4,1,18.6,1,17.6,1,13.2,1
12/1/2002 15:30,19.3,1,56.3,1,18.6,1,17.6,1,13.3,1
12/1/2002 15:45,19.3,1,56.5,1,18.6,1,17.6,1,13.3,1
12/1/2002 16:00,19.3,1,56.4,1,18.6,1,17.6,1,13.4,1
12/1/2002 16:15,19.3,1,56.2,1,18.6,1,17.6,1,13.4,1
12/1/2002 16:30,19.3,1,56.4,1,18.6,1,17.7,1,13,1
12/1/2002 16:45,19.3,1,56.2,1,18.5,1,17.8,1,13.1,1
12/1/2002 17:00,19.3,1,56.4,1,18.5,1,17.8,1,13.1,1
12/1/2002 17:15,19.4,1,56.5,1,18.6,1,17.8,1,13.2,1
12/1/2002 17:30,19.4,1,56.6,1,18.5,1,17.8,1,13.2,1
12/1/2002 17:45,20.2,1,58.8,1,18.7,1,18.1,1,13.1,1
12/1/2002 18:00,20.1,1,57.8,1,18.9,1,18.3,1,12.8,1
12/1/2002 18:15,20,1,58.1,1,19,1,18.2,1,12.8,1
12/1/2002 18:30,19.9,1,58.2,1,19,1,18.2,1,12.9,1
12/1/2002 18:45,19.9,1,57.8,1,19,1,18.2,1,12.9,1
12/1/2002 19:00,19.9,1,57.7,1,19,1,18.2,1,13,1
12/1/2002 19:15,19.9,1,57.8,1,19,1,18.2,1,13,1
12/1/2002 19:30,19.9,1,57.7,1,19.1,1,18.3,1,13.1,1
12/1/2002 19:45,19.9,1,58.9,1,19.2,1,18.4,1,13.1,1
12/1/2002 20:00,19.9,1,58.7,1,19.3,1,18.4,1,13,1
12/1/2002 20:15,19.9,1,56.1,1,19.2,1,18.4,1,13,1
12/1/2002 20:30,20,1,57.4,1,19.2,1,18.5,1,13.1,1
12/1/2002 20:45,20.2,1,59.3,1,19.2,1,18.5,1,13.1,1
12/1/2002 21:00,20.1,1,59.1,1,19.2,1,18.5,1,13.2,1
12/1/2002 21:15,20.2,1,58.2,1,19.1,1,18.5,1,13.2,1
12/1/2002 21:30,20,1,56.3,1,19.1,1,18.6,1,13.2,1
12/1/2002 21:45,19.9,1,55.7,1,19.1,1,18.6,1,13.3,1
12/1/2002 22:00,19.9,1,56.2,1,19,1,18.5,1,13,1
12/1/2002 22:15,20,1,58.3,1,19,1,18.5,1,13.1,1
12/1/2002 22:30,20,1,58.3,1,19.1,1,18.5,1,13.1,1
12/1/2002 22:45,20,1,58.9,1,19.1,1,18.5,1,13,1
12/1/2002 23:00,20,1,59,1,19.1,1,18.5,1,13,1
12/1/2002 23:15,20,1,58.5,1,19.1,1,18.5,1,13.1,1
12/1/2002 23:30,19.9,1,59.1,1,19,1,18.4,1,12.8,1
12/1/2002 23:45,19.9,1,59.4,1,19.1,1,18.4,1,12.8,1
12/2/2002 0:00,19.9,1,59.3,1,19.1,1,18.3,1,12.8,1
12/2/2002 0:15,19.9,1,59.2,1,19.1,1,18.3,1,12.8,1
12/2/2002 0:30,19.9,1,59.2,1,19.2,1,18.2,1,12.9,1
12/2/2002 0:45,19.9,1,58.9,1,19.2,1,18.2,1,12.9,1
12/2/2002 1:00,19.9,1,59,1,19.3,1,18.2,1,13,1
12/2/2002 1:15,19.9,1,58.8,1,19.3,1,18.2,1,13,1
12/2/2002 1:30,19.8,1,58.6,1,19.3,1,18.1,1,13.1,1
12/2/2002 1:45,19.8,1,58.9,1,19.3,1,18.1,1,13.1,1
12/2/2002 2:00,19.8,1,58.5,1,19.3,1,18.1,1,13.2,1
12/2/2002 2:15,19.8,1,58.2,1,19.3,1,18.1,1,13.2,1
12/2/2002 2:30,19.8,1,58,1,19.4,1,18.1,1,13.3,1
12/2/2002 2:45,19.8,1,57.8,1,19.4,1,18.1,1,13.3,1
12/2/2002 3:00,19.8,1,57.7,1,19.4,1,18.1,1,13.4,1
12/2/2002 3:15,19.8,1,57.5,1,19.4,1,18.1,1,13.4,1
12/2/2002 3:30,19.8,1,57.5,1,19.3,1,18,1,12,1
12/2/2002 3:45,19.8,1,57.3,1,19.2,1,18,1,12,1
12/2/2002 4:00,19.8,1,57.2,1,19.1,1,18,1,12.1,1
12/2/2002 4:15,19.8,1,57,1,19,1,18,1,12.2,1
12/2/2002 4:30,19.8,1,56.8,1,19,1,18,1,12.3,1
12/2/2002 4:45,19.8,1,57.4,1,18.9,1,18,1,12.4,1
12/2/2002 5:00,19.8,1,58.5,1,18.9,1,18,1,12.5,1
12/2/2002 5:15,19.8,1,58.8,1,18.9,1,18,1,12.5,1
12/2/2002 5:30,19.8,1,58.1,1,18.8,1,18,1,12.6,1
12/2/2002 5:45,19.8,1,57.7,1,18.8,1,18,1,12.8,1
12/2/2002 6:00,19.8,1,57.3,1,18.8,1,18.1,1,12.9,1
12/2/2002 6:15,19.7,1,56.9,1,18.8,1,18,1,13,1
12/2/2002 6:30,19.7,1,56.6,1,18.7,1,18,1,13.1,1
12/2/2002 6:45,19.7,1,56.3,1,18.7,1,17.9,1,13.3,1
12/2/2002 7:00,19.7,1,56.2,1,18.7,1,18,1,12.9,1
12/2/2002 7:15,19.5,1,51.9,1,18.7,1,18,1,12.4,1
12/2/2002 7:30,19.5,1,51.7,1,18.7,1,17.9,1,12.1,1
12/2/2002 7:45,19.8,1,52.7,1,18.7,1,17.9,1,11.8,1
12/2/2002 8:00,19.8,1,53.4,1,18.7,1,17.9,1,11.8,1
12/2/2002 8:15,19.7,1,52.4,1,18.7,1,17.9,1,12,1
12/2/2002 8:30,19.6,1,51,1,18.6,1,17.8,1,12,1
12/2/2002 8:45,19.8,1,51.9,1,18.6,1,17.8,1,12.1,1
12/2/2002 9:00,19.9,1,52.6,1,18.7,1,17.8,1,12.1,1
12/2/2002 9:15,20,1,53,1,18.7,1,17.8,1,12.2,1
12/2/2002 9:30,20,1,53.4,1,18.7,1,17.9,1,12.3,1
12/2/2002 9:45,20.1,1,53.6,1,18.7,1,17.9,1,12.3,1
12/2/2002 10:00,20.1,1,53.6,1,18.7,1,17.9,1,12.4,1
12/2/2002 10:15,20.3,1,53.4,1,18.8,1,18,1,12.4,1
12/2/2002 10:30,20.4,1,53.2,1,18.8,1,18,1,12.5,1
12/2/2002 10:45,20.5,1,53.1,1,18.8,1,18.1,1,12.6,1
12/2/2002 11:00,20.5,1,52.9,1,18.9,1,18.1,1,12.6,1
12/2/2002 11:15,20.6,1,52.8,1,18.9,1,18.2,1,12.7,1
12/2/2002 11:30,20.6,1,52.7,1,19,1,18.2,1,12.7,1
12/2/2002 11:45,20.7,1,52.6,1,19,1,18.3,1,12.8,1
12/2/2002 12:00,20.8,1,52.5,1,19,1,18.3,1,12.9,1
12/2/2002 12:15,20.8,1,52.5,1,19,1,18.4,1,12.9,1
12/2/2002 12:30,20.9,1,52.4,1,19.1,1,18.4,1,13,1
12/2/2002 12:45,20.9,1,52.3,1,19.1,1,18.5,1,13,1
12/2/2002 13:00,20.9,1,52.2,1,19.1,1,18.5,1,13.1,1
12/2/2002 13:15,20.9,1,52,1,19.2,1,18.6,1,13.1,1
12/2/2002 13:30,20.9,1,51.9,1,19.2,1,18.6,1,13.2,1
12/2/2002 13:45,20.9,1,51.8,1,19.2,1,18.6,1,13.3,1
12/2/2002 14:00,20.9,1,51.7,1,19.2,1,18.6,1,13.3,1
12/2/2002 14:15,20.7,1,52.2,1,19.2,1,18.6,1,13.4,1
12/2/2002 14:30,20.5,1,52.5,1,19.1,1,18.5,1,13.4,1
12/2/2002 14:45,20.5,1,52.5,1,19.1,1,18.5,1,13.5,1
12/2/2002 15:00,20.4,1,52.5,1,19,1,18.4,1,13.5,1
12/2/2002 15:15,20.3,1,52.3,1,19,1,18.4,1,13.6,1
12/2/2002 15:30,20.3,1,52.3,1,19,1,18.3,1,13.7,1
12/2/2002 15:45,20.2,1,52.3,1,18.9,1,18.3,1,13.7,1
12/2/2002 16:00,20.1,1,52.3,1,18.9,1,18.2,1,13.8,1
12/2/2002 16:15,20.1,1,52.3,1,18.9,1,18.2,1,13.8,1
12/2/2002 16:30,20,1,52.3,1,18.8,1,18.2,1,13.9,1
12/2/2002 16:45,20,1,52.3,1,18.8,1,18.1,1,13.9,1
12/2/2002 17:00,20,1,51.7,1,18.8,1,18.1,1,14,1
12/2/2002 17:15,20,1,51.6,1,18.8,1,18.1,1,14,1
12/2/2002 17:30,20.2,1,51.6,1,18.8,1,18.1,1,14.1,1
12/2/2002 17:45,20.2,1,52.8,1,18.8,1,18.2,1,14.1,1
12/2/2002 18:00,20.2,1,53,1,18.8,1,18.2,1,13.5,1
12/2/2002 18:15,20.1,1,53.4,1,18.8,1,18.3,1,13.5,1
12/2/2002 18:30,20,1,53.6,1,18.8,1,18.3,1,13.5,1
12/2/2002 18:45,20.1,1,53.5,1,18.8,1,18.3,1,13.1,1
12/2/2002 19:00,20.1,1,53.5,1,18.8,1,18.3,1,13.1,1
12/2/2002 19:15,20,1,53.5,1,18.8,1,18.2,1,13.2,1
12/2/2002 19:30,20,1,53.5,1,18.8,1,18.2,1,13.2,1
12/2/2002 19:45,20.3,1,53.5,1,18.8,1,18.2,1,13.3,1
12/2/2002 20:00,20.5,1,52.8,1,19,1,18.4,1,13.3,1
12/2/2002 20:15,20.5,1,54.4,1,19,1,18.4,1,13.4,1
12/2/2002 20:30,20.4,1,55.2,1,19.1,1,18.4,1,13.4,1
12/2/2002 20:45,20.4,1,53,1,19,1,18.5,1,13.5,1
12/2/2002 21:00,20.4,1,53.7,1,19.1,1,18.5,1,13.5,1
12/2/2002 21:15,20.4,1,54.5,1,19.1,1,18.5,1,13.6,1
12/2/2002 21:30,20.4,1,55,1,19.2,1,18.5,1,13.7,1
12/2/2002 21:45,20.4,1,55,1,19.2,1,18.6,1,13.7,1
12/2/2002 22:00,20.4,1,55,1,19.1,1,18.6,1,13.8,1
12/2/2002 22:15,20.4,1,54.8,1,19.1,1,18.6,1,13.8,1
12/2/2002 22:30,20.4,1,55.7,1,19.2,1,18.6,1,13.8,1
12/2/2002 22:45,20.4,1,55.8,1,19.1,1,18.7,1,13.9,1
12/2/2002 23:00,20.4,1,55.9,1,19.2,1,18.8,1,13.4,1
12/2/2002 23:15,20.4,1,56.9,1,19.3,1,18.7,1,13.4,1
12/2/2002 23:30,20.5,1,58,1,19.3,1,18.7,1,13.5,1
12/2/2002 23:45,20.4,1,58.3,1,19.2,1,18.7,1,13.5,1
12/3/2002 0:00,20.4,1,58.3,1,19.2,1,18.6,1,13.6,1
12/3/2002 0:15,20.3,1,57.7,1,19.2,1,18.6,1,13.6,1
12/3/2002 0:30,20.3,1,57.9,1,19.2,1,18.5,1,13.7,1
12/3/2002 0:45,20.3,1,57.9,1,19.2,1,18.5,1,13.7,1
12/3/2002 1:00,20.4,1,57.9,1,19.3,1,18.6,1,13.8,1
12/3/2002 1:15,20.5,1,58.6,1,19.4,1,18.6,1,13.8,1
12/3/2002 1:30,20.5,1,58.8,1,19.5,1,18.6,1,13.9,1
12/3/2002 1:45,20.4,1,58.8,1,19.6,1,18.6,1,13.9,1
12/3/2002 2:00,20.4,1,59.2,1,19.6,1,18.5,1,14,1
12/3/2002 2:15,20.3,1,58.8,1,19.6,1,18.5,1,14,1
12/3/2002 2:30,20.3,1,58.5,1,19.7,1,18.5,1,14.1,1
12/3/2002 2:45,20.3,1,58.1,1,19.7,1,18.4,1,14.1,1
12/3/2002 3:00,20.3,1,57.6,1,19.7,1,18.4,1,14.1,1
12/3/2002 3:15,20.2,1,57.5,1,19.7,1,18.3,1,14.2,1
12/3/2002 3:30,20.2,1,57.2,1,19.6,1,18.3,1,13.3,1
12/3/2002 3:45,20.2,1,57,1,19.5,1,18.3,1,13.4,1
12/3/2002 4:00,20.2,1,56.7,1,19.3,1,18.3,1,13.4,1
12/3/2002 4:15,20.2,1,56.5,1,19.2,1,18.2,1,13.5,1
12/3/2002 4:30,20.1,1,56.3,1,19.2,1,18.2,1,13.5,1
12/3/2002 4:45,20.1,1,55.9,1,19.1,1,18.2,1,13.5,1
12/3/2002 5:00,20.1,1,55.8,1,19,1,18.2,1,13.6,1
12/3/2002 5:15,20.3,1,55.3,1,19,1,18.2,1,13.4,1
12/3/2002 5:30,20.2,1,53.7,1,18.9,1,18,1,13.4,1
12/3/2002 5:45,20.1,1,52.1,1,18.7,1,18,1,13.4,1
12/3/2002 6:00,20.2,1,50.4,1,18.5,1,17.8,1,13.5,1
12/3/2002 6:15,20.2,1,49.2,1,18.4,1,17.8,1,13.5,1
12/3/2002 6:30,20.1,1,49.7,1,18.4,1,17.8,1,12.6,1
12/3/2002 6:45,20,1,50.1,1,18.4,1,17.8,1,12.6,1
12/3/2002 7:00,20,1,50.4,1,18.4,1,17.7,1,12.7,1
12/3/2002 7:15,20.1,1,50.9,1,18.3,1,17.6,1,12.7,1
12/3/2002 7:30,20.1,1,50.5,1,18.4,1,17.7,1,12.4,1
12/3/2002 7:45,20.1,1,51.3,1,18.5,1,17.7,1,12.4,1
12/3/2002 8:00,20,1,51.8,1,18.5,1,17.7,1,12.5,1
12/3/2002 8:15,19.5,1,47.6,1,18.5,1,17.7,1,12.5,1
12/3/2002 8:30,19.6,1,47.3,1,18.4,1,17.6,1,12.4,1
12/3/2002 8:45,19.6,1,48.2,1,18.4,1,17.6,1,12.4,1
12/3/2002 9:00,19.6,1,49.1,1,18.4,1,17.6,1,12.5,1
12/3/2002 9:15,19.6,1,49.5,1,18.4,1,17.6,1,12.5,1
12/3/2002 9:30,19.7,1,50,1,18.4,1,17.6,1,12.6,1
12/3/2002 9:45,19.8,1,50.2,1,18.4,1,17.6,1,12.6,1
12/3/2002 10:00,20,1,50,1,18.4,1,17.6,1,12.7,1
12/3/2002 10:15,20.1,1,50,1,18.5,1,17.7,1,12.7,1
12/3/2002 10:30,20.3,1,50.2,1,18.5,1,17.7,1,12.8,1
12/3/2002 10:45,20.4,1,50.2,1,18.6,1,17.8,1,12.8,1
12/3/2002 11:00,20.5,1,50.1,1,18.7,1,17.9,1,12.9,1
12/3/2002 11:15,20.6,1,50,1,18.7,1,18,1,12.9,1
12/3/2002 11:30,20.7,1,49.8,1,18.8,1,18.1,1,13,1
12/3/2002 11:45,20.8,1,49.8,1,18.9,1,18.1,1,13,1
12/3/2002 12:00,20.9,1,49.8,1,18.9,1,18.2,1,13.1,1
12/3/2002 12:15,20.7,1,50,1,18.9,1,18.3,1,13.2,1
12/3/2002 12:30,20.7,1,50,1,18.9,1,18.2,1,13.2,1
12/3/2002 12:45,20.7,1,49.9,1,19,1,18.3,1,13.3,1
12/3/2002 13:00,20.7,1,49.9,1,19,1,18.3,1,13.3,1
12/3/2002 13:15,20.8,1,49.8,1,19,1,18.3,1,13.4,1
12/3/2002 13:30,20.8,1,49.8,1,19,1,18.4,1,13.4,1
12/3/2002 13:45,20.7,1,49.8,1,19,1,18.4,1,13.5,1
12/3/2002 14:00,20.7,1,49.9,1,19,1,18.4,1,13.5,1
12/3/2002 14:15,20.7,1,50.2,1,19,1,18.4,1,13.6,1
12/3/2002 14:30,20.5,1,50.7,1,19,1,18.4,1,13.6,1
12/3/2002 14:45,20.4,1,50.7,1,19,1,18.3,1,13.7,1
12/3/2002 15:00,20.4,1,50.6,1,19,1,18.3,1,13.7,1
12/3/2002 15:15,20.3,1,50.5,1,18.9,1,18.3,1,13.8,1
12/3/2002 15:30,20.3,1,50.5,1,18.9,1,18.2,1,13.8,1
12/3/2002 15:45,20.3,1,50.3,1,18.9,1,18.2,1,13.9,1
12/3/2002 16:00,20.2,1,50.3,1,18.8,1,18.2,1,13.9,1
12/3/2002 16:15,20.1,1,50.3,1,18.8,1,18.1,1,14,1
12/3/2002 16:30,20.1,1,50.3,1,18.8,1,18.1,1,14,1
12/3/2002 16:45,20,1,50.3,1,18.8,1,18.1,1,14.1,1
12/3/2002 17:00,20,1,50.3,1,18.7,1,18,1,13.5,1
12/3/2002 17:15,20.2,1,50,1,18.8,1,18.1,1,13.6,1
12/3/2002 17:30,20.2,1,50.6,1,18.8,1,18.1,1,13.6,1
12/3/2002 17:45,20.2,1,51.6,1,18.9,1,18.1,1,13.7,1
12/3/2002 18:00,20.2,1,51.9,1,19,1,18.1,1,13.7,1
12/3/2002 18:15,20.2,1,51.9,1,19,1,18.1,1,13.8,1
12/3/2002 18:30,20.2,1,52,1,19.1,1,18.1,1,12.9,1
12/3/2002 18:45,20.2,1,52.2,1,19.4,1,18.2,1,13,1
12/3/2002 19:00,20.2,1,52.3,1,19.5,1,18.3,1,13,1
12/3/2002 19:15,20.2,1,52.4,1,19.6,1,18.3,1,13.1,1
12/3/2002 19:30,20.2,1,52.5,1,19.7,1,18.4,1,13.2,1
12/3/2002 19:45,20.2,1,52.7,1,19.6,1,18.4,1,13.2,1
12/3/2002 20:00,20.2,1,51.3,1,19.5,1,18.3,1,13.3,1
12/3/2002 20:15,20.2,1,49.8,1,19.4,1,18.3,1,13.3,1
12/3/2002 20:30,20.1,1,49.2,1,19.3,1,18.3,1,13.4,1
12/3/2002 20:45,20.2,1,48.8,1,19.2,1,18.3,1,13.4,1
12/3/2002 21:00,20.2,1,49.1,1,19.2,1,18.3,1,13.5,1
12/3/2002 21:15,20.3,1,50.6,1,19.2,1,18.4,1,13.5,1
12/3/2002 21:30,20.3,1,51.7,1,19.3,1,18.4,1,13.6,1
12/3/2002 21:45,20.3,1,52.5,1,19.2,1,18.4,1,13.6,1
12/3/2002 22:00,20.3,1,52.9,1,19.2,1,18.4,1,13.7,1
12/3/2002 22:15,20.3,1,53.4,1,19.2,1,18.4,1,13.7,1
12/3/2002 22:30,20.4,1,53.9,1,19.3,1,18.5,1,13.8,1
12/3/2002 22:45,20.3,1,54.9,1,19.3,1,18.5,1,13.8,1
12/3/2002 23:00,20.3,1,55,1,19.2,1,18.6,1,13.9,1
12/3/2002 23:15,20.3,1,55.1,1,19.2,1,18.5,1,13.9,1
12/3/2002 23:30,20.3,1,55.1,1,19.2,1,18.5,1,14,1
12/3/2002 23:45,20.3,1,55,1,19.2,1,18.5,1,14,1
12/4/2002 0:00,20.3,1,54.8,1,19.2,1,18.5,1,14.1,1
12/4/2002 0:15,20.3,1,54.7,1,19.2,1,18.4,1,14.1,1
12/4/2002 0:30,20.3,1,54.6,1,19.1,1,18.4,1,14.2,1
12/4/2002 0:45,20.3,1,54.5,1,19.1,1,18.4,1,14.2,1
12/4/2002 1:00,20.3,1,54.5,1,19.1,1,18.4,1,14.3,1
12/4/2002 1:15,20.3,1,55,1,19.1,1,18.3,1,14.3,1
12/4/2002 1:30,20.2,1,55.4,1,19.1,1,18.3,1,14.4,1
12/4/2002 1:45,20.3,1,55.5,1,19.2,1,18.4,1,14.4,1
12/4/2002 2:00,20.3,1,56.2,1,19.2,1,18.4,1,14.4,1
12/4/2002 2:15,20.3,1,56,1,19.2,1,18.3,1,14.5,1
12/4/2002 2:30,20.2,1,55.9,1,19.1,1,18.3,1,14.5,1
12/4/2002 2:45,20.2,1,55.8,1,19.1,1,18.3,1,14.6,1
12/4/2002 3:00,20.2,1,55.5,1,19.1,1,18.2,1,14.6,1
12/4/2002 3:15,20.1,1,55.4,1,19.1,1,18.2,1,14.7,1
12/4/2002 3:30,20.1,1,55.4,1,19,1,18.2,1,14.7,1
12/4/2002 3:45,20.1,1,55.2,1,19,1,18.2,1,14.8,1
12/4/2002 4:00,20.1,1,55.2,1,19,1,18.1,1,14.8,1
12/4/2002 4:15,20.1,1,54.8,1,19,1,18.1,1,14.8,1
12/4/2002 4:30,20.1,1,54.7,1,19,1,18.1,1,14.9,1
12/4/2002 4:45,20.2,1,54.6,1,19,1,18.1,1,13.8,1
12/4/2002 5:00,20.2,1,55.2,1,19,1,18.1,1,13.8,1
12/4/2002 5:15,20.2,1,55.5,1,19.1,1,18,1,13.9,1
12/4/2002 5:30,20.2,1,55.7,1,19,1,18,1,13.9,1
12/4/2002 5:45,20.1,1,55.7,1,19,1,17.9,1,13.9,1
12/4/2002 6:00,20.2,1,55.6,1,19,1,17.8,1,14,1
12/4/2002 6:15,20.2,1,55.5,1,19,1,17.8,1,13.6,1
12/4/2002 6:30,20.1,1,55.8,1,19,1,18,1,13.4,1
12/4/2002 6:45,20.1,1,55.7,1,19,1,18,1,13.4,1
12/4/2002 7:00,20,1,55.5,1,19,1,18.1,1,13.5,1
12/4/2002 7:15,20,1,55.4,1,18.9,1,18.1,1,13.5,1
12/4/2002 7:30,20,1,55.1,1,18.9,1,18.1,1,13.6,1
12/4/2002 7:45,19.9,1,55.1,1,18.9,1,18.1,1,13.6,1
12/4/2002 8:00,19.9,1,55,1,18.9,1,18.1,1,13.7,1
12/4/2002 8:15,19.9,1,54.9,1,18.9,1,18.1,1,13.7,1
12/4/2002 8:30,19.9,1,54.9,1,18.9,1,18.1,1,13.8,1
12/4/2002 8:45,19.9,1,54.9,1,18.8,1,18.1,1,13.8,1
12/4/2002 9:00,20,1,55.2,1,18.8,1,17.9,1,13.9,1
12/4/2002 9:15,20.1,1,55.3,1,18.8,1,17.7,1,13.9,1
12/4/2002 9:30,20,1,56,1,18.8,1,17.7,1,14,1
12/4/2002 9:45,20,1,56.2,1,18.8,1,17.6,1,14,1
12/4/2002 10:00,19.9,1,55.3,1,18.9,1,17.8,1,13.3,1
12/4/2002 10:15,19.9,1,57.2,1,18.9,1,17.8,1,13.2,1
12/4/2002 10:30,19.8,1,58.2,1,18.9,1,17.8,1,13.3,1
12/4/2002 10:45,19.8,1,58.9,1,18.9,1,17.8,1,13.3,1
12/4/2002 11:00,19.8,1,59.4,1,18.8,1,17.8,1,13.4,1
12/4/2002 11:15,19.7,1,60.2,1,18.8,1,17.8,1,13.4,1
12/4/2002 11:30,19.7,1,60.5,1,18.8,1,17.8,1,13.5,1
12/4/2002 11:45,19.7,1,61,1,18.8,1,17.8,1,13.5,1
12/4/2002 12:00,19.7,1,61.1,1,18.8,1,17.8,1,13.6,1
12/4/2002 12:15,19.6,1,61.3,1,18.8,1,17.8,1,13.6,1
12/4/2002 12:30,19.6,1,61.5,1,18.7,1,17.8,1,13.7,1
12/4/2002 12:45,19.6,1,61.1,1,18.7,1,17.8,1,13.7,1
12/4/2002 13:00,19.6,1,61,1,18.7,1,17.7,1,13.8,1
12/4/2002 13:15,19.6,1,61,1,18.7,1,17.7,1,13.8,1
12/4/2002 13:30,19.6,1,60.7,1,18.7,1,17.7,1,13.9,1
12/4/2002 13:45,19.5,1,60.4,1,18.7,1,17.7,1,13.9,1
12/4/2002 14:00,19.5,1,60.2,1,18.7,1,17.7,1,14,1
12/4/2002 14:15,19.5,1,60,1,18.6,1,17.7,1,14,1
12/4/2002 14:30,19.5,1,59.9,1,18.6,1,17.7,1,14.1,1
12/4/2002 14:45,19.5,1,59.7,1,18.6,1,17.7,1,14.1,1
12/4/2002 15:00,19.5,1,59.5,1,18.6,1,17.6,1,14.2,1
12/4/2002 15:15,19.5,1,60,1,18.6,1,17.6,1,14.2,1
12/4/2002 15:30,19.5,1,60.2,1,18.6,1,17.6,1,14.1,1
12/4/2002 15:45,19.5,1,60.6,1,18.6,1,17.6,1,14.1,1
12/4/2002 16:00,19.5,1,60.6,1,18.7,1,17.7,1,14,1
12/4/2002 16:15,19.5,1,60.7,1,18.7,1,17.8,1,14,1
12/4/2002 16:30,19.5,1,60.5,1,18.9,1,17.8,1,14,1
12/4/2002 16:45,19.5,1,60.1,1,19,1,17.9,1,14.1,1
12/4/2002 17:00,19.6,1,60.5,1,19,1,18.1,1,13.9,1
12/4/2002 17:15,19.6,1,60.1,1,19.1,1,18.1,1,13.8,1
12/4/2002 17:30,19.8,1,59.9,1,19.2,1,18.2,1,13.8,1
12/4/2002 17:45,19.8,1,60.5,1,19.2,1,18.4,1,13.9,1
12/4/2002 18:00,19.7,1,60.6,1,19.3,1,18.3,1,13.5,1
12/4/2002 18:15,19.7,1,60.6,1,19.2,1,18.3,1,13.6,1
12/4/2002 18:30,19.6,1,60.5,1,19.1,1,18.2,1,13.6,1
12/4/2002 18:45,19.6,1,60.1,1,19,1,18.2,1,13.7,1
12/4/2002 19:00,19.4,1,59.4,1,19,1,18.1,1,12.9,1
12/4/2002 19:15,19.3,1,58,1,19,1,18,1,13,1
12/4/2002 19:30,19.3,1,57.6,1,19,1,18,1,13,1
12/4/2002 19:45,19.5,1,57.8,1,19.1,1,18,1,13,1
12/4/2002 20:00,19.6,1,57.6,1,19.1,1,18,1,13.1,1
12/4/2002 20:15,19.6,1,58,1,19.1,1,18,1,13.1,1
12/4/2002 20:30,19.6,1,57.9,1,19,1,17.9,1,13.2,1
12/4/2002 20:45,19.6,1,57.7,1,18.9,1,17.9,1,13.2,1
12/4/2002 21:00,19.5,1,57.1,1,18.9,1,17.9,1,13.3,1
12/4/2002 21:15,19.6,1,57.4,1,18.8,1,17.9,1,13.3,1
12/4/2002 21:30,19.5,1,57.9,1,18.8,1,18,1,13.1,1
12/4/2002 21:45,19.8,1,58.4,1,18.9,1,18.1,1,12.7,1
12/4/2002 22:00,19.9,1,59.2,1,19,1,18.2,1,12.8,1
12/4/2002 22:15,19.9,1,60.1,1,19,1,18.2,1,12.6,1
12/4/2002 22:30,19.9,1,60.4,1,19,1,18.2,1,12.6,1
12/4/2002 22:45,20,1,60.6,1,19,1,18.2,1,12.7,1
12/4/2002 23:00,20,1,61,1,19,1,18.2,1,12.7,1
12/4/2002 23:15,20,1,61.1,1,19,1,18.3,1,12.8,1
12/4/2002 23:30,20,1,62.2,1,19.1,1,18.3,1,12.7,1
12/4/2002 23:45,20,1,62,1,19.1,1,18.3,1,12.6,1
12/5/2002 0:00,20,1,61.9,1,19,1,18.3,1,12.7,1
12/5/2002 0:15,20,1,61.7,1,19,1,18.3,1,12.7,1
12/5/2002 0:30,19.9,1,62.3,1,19,1,18.3,1,12.8,1
12/5/2002 0:45,19.9,1,61.8,1,19,1,18.3,1,12.8,1
12/5/2002 1:00,19.8,1,61.6,1,18.9,1,18.3,1,12.9,1
12/5/2002 1:15,19.8,1,61.2,1,18.9,1,18.3,1,12.9,1
12/5/2002 1:30,19.8,1,60.5,1,18.9,1,18.3,1,13,1
12/5/2002 1:45,19.8,1,60.2,1,18.9,1,18.3,1,13,1
12/5/2002 2:00,19.8,1,59.9,1,18.9,1,18.3,1,13.1,1
12/5/2002 2:15,19.8,1,59.6,1,18.8,1,18.2,1,13.2,1
12/5/2002 2:30,19.7,1,59.4,1,18.8,1,18.2,1,13.2,1
12/5/2002 2:45,19.7,1,59.2,1,18.8,1,18.2,1,13.3,1
12/5/2002 3:00,19.7,1,59,1,18.8,1,18.2,1,13.3,1
12/5/2002 3:15,19.7,1,58.9,1,18.8,1,18.1,1,13.4,1
12/5/2002 3:30,19.7,1,59,1,18.8,1,18.1,1,13.4,1
12/5/2002 3:45,19.7,1,58.6,1,18.7,1,18.1,1,13.5,1
12/5/2002 4:00,19.7,1,58.6,1,18.7,1,18,1,13.5,1
12/5/2002 4:15,19.7,1,58.6,1,18.7,1,18.1,1,13.6,1
12/5/2002 4:30,19.7,1,58.5,1,18.7,1,18.1,1,13.6,1
12/5/2002 4:45,19.6,1,58.4,1,18.7,1,18.1,1,13.7,1
12/5/2002 5:00,19.7,1,58.1,1,18.7,1,18.1,1,13.7,1
12/5/2002 5:15,19.7,1,58.2,1,18.8,1,18,1,12.9,1
12/5/2002 5:30,19.8,1,58.3,1,18.8,1,18,1,12.9,1
12/5/2002 5:45,19.7,1,58,1,18.8,1,18,1,13.1,1
12/5/2002 6:00,19.7,1,57.3,1,18.7,1,17.9,1,13.2,1
12/5/2002 6:15,19.7,1,56.6,1,18.7,1,17.9,1,13.1,1
12/5/2002 6:30,19.8,1,56.1,1,18.6,1,17.9,1,13.1,1
12/5/2002 6:45,19.8,1,56.2,1,18.7,1,17.9,1,13.2,1
12/5/2002 7:00,19.8,1,56.8,1,18.7,1,17.9,1,13.6,1
12/5/2002 7:15,19.7,1,56.8,1,18.6,1,17.9,1,13.4,1
12/5/2002 7:30,19.6,1,56.7,1,18.6,1,17.9,1,13.4,1
12/5/2002 7:45,19.6,1,56.6,1,18.6,1,17.8,1,13.5,1
12/5/2002 8:00,19.6,1,56.6,1,18.6,1,17.8,1,13.1,1
12/5/2002 8:15,19.7,1,56.5,1,18.5,1,17.8,1,13.1,1
12/5/2002 8:30,19.7,1,56.4,1,18.5,1,17.8,1,13.2,1
12/5/2002 8:45,19.8,1,56.5,1,18.6,1,17.8,1,13.2,1
12/5/2002 9:00,19.8,1,56.5,1,18.6,1,17.8,1,13.3,1
12/5/2002 9:15,19.9,1,56.9,1,18.7,1,17.9,1,13.3,1
12/5/2002 9:30,20,1,57,1,18.7,1,17.9,1,13.4,1
12/5/2002 9:45,20.2,1,57.4,1,18.8,1,18,1,13.4,1
12/5/2002 10:00,20.3,1,57.7,1,18.8,1,18,1,13.5,1
12/5/2002 10:15,20,1,56.7,1,18.8,1,18,1,13.5,1
12/5/2002 10:30,20,1,56.9,1,18.8,1,18,1,13.6,1
12/5/2002 10:45,20,1,57.3,1,18.7,1,18,1,13.6,1
12/5/2002 11:00,20.2,1,57.3,1,18.8,1,18.1,1,13.1,1
12/5/2002 11:15,20.2,1,57.8,1,18.8,1,18.1,1,13.2,1
12/5/2002 11:30,20.2,1,58.1,1,18.9,1,18.2,1,13.2,1
12/5/2002 11:45,20.2,1,58.3,1,18.9,1,18.2,1,13.3,1
12/5/2002 12:00,20.1,1,58.5,1,18.9,1,18.2,1,13.3,1
12/5/2002 12:15,20.1,1,58.5,1,18.9,1,18.2,1,13.4,1
12/5/2002 12:30,20.1,1,58.5,1,18.9,1,18.2,1,13.4,1
12/5/2002 12:45,20.3,1,58.5,1,18.9,1,18.2,1,13,1
12/5/2002 13:00,20.5,1,58.4,1,19,1,18.3,1,13,1
12/5/2002 13:15,20.6,1,58.1,1,19,1,18.3,1,13,1
12/5/2002 13:30,20.5,1,58.1,1,19,1,18.4,1,13.1,1
12/5/2002 13:45,20.4,1,58,1,19,1,18.4,1,13.1,1
12/5/2002 14:00,20.2,1,58.1,1,19,1,18.3,1,13.2,1
12/5/2002 14:15,20.2,1,58.1,1,19,1,18.3,1,13.3,1
12/5/2002 14:30,20.2,1,58,1,19,1,18.3,1,13.3,1
12/5/2002 14:45,20.1,1,58,1,19,1,18.3,1,13.4,1
12/5/2002 15:00,20.1,1,58,1,19,1,18.3,1,13.4,1
12/5/2002 15:15,20.1,1,58,1,19,1,18.3,1,13.5,1
12/5/2002 15:30,20.1,1,58,1,19,1,18.3,1,13.5,1
12/5/2002 15:45,20.1,1,58,1,19,1,18.3,1,13.6,1
12/5/2002 16:00,20.1,1,58.1,1,18.9,1,18.3,1,13.6,1
12/5/2002 16:15,20.1,1,58.2,1,18.9,1,18.3,1,13.7,1
12/5/2002 16:30,20,1,58.5,1,18.9,1,18.3,1,13.7,1
12/5/2002 16:45,20,1,58.6,1,18.9,1,18.2,1,13.8,1
12/5/2002 17:00,20,1,58.7,1,18.9,1,18.2,1,13.8,1
12/5/2002 17:15,19.9,1,59.3,1,18.9,1,18.2,1,13.9,1
12/5/2002 17:30,19.9,1,59.7,1,18.9,1,18.2,1,13.9,1
12/5/2002 17:45,20,1,59.8,1,18.9,1,18.2,1,14,1
12/5/2002 18:00,20.1,1,59.8,1,18.9,1,18.2,1,14,1
12/5/2002 18:15,20.1,1,60.1,1,18.9,1,18.3,1,14.1,1
12/5/2002 18:30,20.1,1,60.1,1,18.9,1,18.2,1,14.1,1
12/5/2002 18:45,20.1,1,59.6,1,18.9,1,18.3,1,13.2,1
12/5/2002 19:00,20,1,59,1,18.9,1,18.4,1,13.3,1
12/5/2002 19:15,20.1,1,59.6,1,18.9,1,18.3,1,13.3,1
12/5/2002 19:30,20,1,60,1,18.9,1,18.3,1,13.4,1
12/5/2002 19:45,20,1,60,1,18.9,1,18.3,1,13.4,1
12/5/2002 20:00,20.1,1,59.9,1,19,1,18.3,1,13.5,1
12/5/2002 20:15,20.1,1,60.4,1,19,1,18.3,1,13.5,1
12/5/2002 20:30,20.4,1,59.8,1,19,1,18.4,1,13.8,1
12/5/2002 20:45,20.4,1,59.6,1,19.1,1,18.5,1,13.9,1
12/5/2002 21:00,20.3,1,59.5,1,19.1,1,18.5,1,13.9,1
12/5/2002 21:15,20.4,1,59.1,1,19.1,1,18.5,1,13.6,1
12/5/2002 21:30,20.5,1,59.8,1,19.1,1,18.5,1,13.7,1
12/5/2002 21:45,20.3,1,59.9,1,19.1,1,18.5,1,13.7,1
12/5/2002 22:00,20.4,1,60.1,1,19.1,1,18.5,1,13.7,1
12/5/2002 22:15,20.4,1,61.2,1,19.2,1,18.5,1,13.8,1